Weather History for Yoho Park, BC

Change the Weather History Date:

Wednesday, November 27, 2013

  Actual Average Record
Temperature  
Mean Temperature 14 °F -  
Max Temperature 23 °F - - ()
Min Temperature 4 °F - - ()
Degree Days  
Heating Degree Days 52    
Moisture  
Dew Point 11 °F    
Average Humidity 92    
Maximum Humidity 97    
Minimum Humidity 83    
Precipitation  
Precipitation 0.04 in - - ()
Sea Level Pressure  
Sea Level Pressure 30.31 in    
Wind  
Wind Speed 2 mph ()    
Max Wind Speed 8 mph    
Max Gust Speed -    
T = Trace of Precipitation, MM = Missing Value Source: Averaged Metar Reports

Daily Weather History Graph

Daily Weather History Graph

Search for Another Location

Airport:

Trip Planner

Search our weather history database for the weather conditions in past years. The results will help you decide how hot, cold, wet, or windy it might be!

Date:

Astronomy

Nov. 27, 2013 Rise Set
Actual Time 8:23 AM MST 4:42 PM MST
Civil Twilight 7:44 AM MST 5:21 PM MST
Nautical Twilight 7:02 AM MST 6:03 PM MST
Astronomical Twilight 6:22 AM MST 6:43 PM MST
Moon 1:51 AM MST (11/27) 1:56 PM MST (11/27)
Length of Visible Light 9h 36m
Length of Day
8h 19m
Waning Crescent, 31% of the Moon is Illuminated
Nov 27
Waning Crescent
Dec 2
New
Dec 9
First Quarter
Dec 17
Full
Dec 25
Last Quarter

Hourly Weather History & Observations

Time (MST) Temp. Windchill Dew Point Humidity Pressure Visibility Wind Dir Wind Speed Gust Speed Precip Events Conditions
12:00 AM 16.9 °F 6.4 °F 16.2 °F 97% 30.25 in - SW 8.1 mph - N/A   Unknown
1:00 AM 16.5 °F 6.0 °F 15.6 °F 96% 30.27 in - SW 8.1 mph - N/A   Unknown
2:00 AM 15.6 °F - 14.5 °F 95% 30.27 in - West 2.3 mph - N/A   Unknown
3:00 AM 14.4 °F - 13.1 °F 95% 30.28 in - East 1.2 mph - N/A   Unknown
4:00 AM 12.0 °F - 10.4 °F 93% 30.30 in - East 2.3 mph - N/A   Unknown
5:00 AM 11 °F - 10 °F 92% 30.30 in - East 1.2 mph - -  
5:00 AM 10.9 °F - 9.7 °F 95% 30.30 in - East 1.2 mph - N/A   Unknown
6:00 AM 10.4 °F - 8.6 °F 92% 30.30 in - SSE 1.2 mph - N/A   Unknown
7:00 AM 8.4 °F - 6.3 °F 91% 30.32 in - ESE 1.2 mph - N/A   Unknown
8:00 AM 5.5 °F - 3.6 °F 92% 30.34 in - Calm Calm - N/A   Unknown
9:00 AM 5.0 °F - 2.8 °F 91% 30.35 in - East 1.2 mph - N/A   Unknown
10:00 AM 5.2 °F - 3.0 °F 91% 30.37 in - East 1.2 mph - N/A   Unknown
11:00 AM 7 °F - 5 °F 86% 30.35 in - East 1.2 mph - -  
11:00 AM 7.0 °F - 4.8 °F 91% 30.35 in - East 1.2 mph - N/A   Unknown
12:00 PM 18.3 °F - 13.8 °F 83% 30.30 in - ENE 2.3 mph - N/A   Unknown
1:00 PM 21.7 °F - 18.5 °F 87% 30.27 in - Calm Calm - N/A   Unknown
2:00 PM 22.6 °F - 18.7 °F 85% 30.27 in - SW 2.3 mph - N/A   Unknown
3:00 PM 21.2 °F - 18.7 °F 90% 30.28 in - Calm Calm - N/A   Unknown
4:00 PM 20.7 °F - 18.5 °F 91% 30.27 in - SSE 1.2 mph - N/A   Unknown
5:00 PM 19 °F - 18 °F 93% 30.28 in - NE 2.3 mph - -  
5:00 PM 19.0 °F - 17.8 °F 95% 30.28 in - NE 2.3 mph - N/A   Unknown
6:00 PM 17.4 °F - 16.5 °F 96% 30.30 in - NE 1.2 mph - N/A   Unknown
7:00 PM 13.8 °F - 12.7 °F 95% 30.33 in - ENE 2.3 mph - N/A   Unknown
8:00 PM 11.1 °F - 9.3 °F 92% 30.34 in - ENE 1.2 mph - N/A   Unknown
9:00 PM 9.1 °F - 7.7 °F 94% 30.35 in - ENE 1.2 mph - N/A   Unknown
10:00 PM 8.4 °F - 7.2 °F 95% 30.35 in - NE 1.2 mph - N/A   Unknown
11:00 PM 8 °F - 7 °F 94% 30.31 in - Calm Calm - -  
11:00 PM 8.4 °F - 7.2 °F 95% 30.31 in - Calm Calm - N/A   Unknown